Orbital Elements
Epoch 2004 June 4.0 TT = JDT 2453160.5
T 2004 May 17.94272 TT MPC
q 1.0362640 (2000.0) P Q
n 0.15390232 Peri. 180.80998 +0.75829908 -0.63421461
a 3.4485719 Node 219.89789 +0.59942745 +0.76929029
e 0.6995092 Incl. 13.60186 +0.25626009 +0.07722874
P 6.40
From 3810 observations 1997 May 2-2010 Nov. 23, mean residual 0".60. Non-
gravitational parameters A1 = +0.23 +/- 0.00, A2 = +0.0284 +/- 0.0001.
|